When you browse on this site, cookies collect data to enhance your experience and personalize the content and advertising you see.
Visit our Privacy Policy to learn more. By continuing to use the site, you agree to this use of cookies and data.
  • In Portugal
  • List of Countries
  • For 7 days
  • Water Temperature
  • Weather Map
  • Weather Widgets
  • user-avatar
    Login

    Hourly Weather Cyklady

    Today, 11 December, Wednesday

    Time Temperature Precipitation Wind Pressure Humidity
    00:00 +7°C° 0.4 mm 1 mps 675 mmHg 94%
    01:00 +7°C° 0 mm 1 mps 675 mmHg 95%
    02:00 +7°C° 0.5 mm 1 mps 675 mmHg 94%
    03:00 +7°C° 0.5 mm 1 mps 675 mmHg 93%
    04:00 +6°C° 0.5 mm 2 mps 675 mmHg 91%
    05:00 +5°C° 0.4 mm 2 mps 675 mmHg 92%
    06:00 +5°C° 0.4 mm 2 mps 675 mmHg 92%
    07:00 +5°C° 0.4 mm 2 mps 675 mmHg 92%
    08:00 +6°C° 0.2 mm 2 mps 676 mmHg 87%
    09:00 +7°C° 0.2 mm 2 mps 676 mmHg 81%
    10:00 +9°C° 0.2 mm 3 mps 677 mmHg 76%
    11:00 +8°C° 1 mm 3 mps 676 mmHg 78%
    12:00 +8°C° 1 mm 3 mps 676 mmHg 80%
    13:00 +8°C° 1 mm 3 mps 675 mmHg 82%
    14:00 +7°C° 0.3 mm 3 mps 675 mmHg 83%
    15:00 +7°C° 0.3 mm 3 mps 675 mmHg 84%
    16:00 +6°C° 0.3 mm 2 mps 675 mmHg 85%
    17:00 +6°C° 0.1 mm 2 mps 675 mmHg 86%
    18:00 +5°C° 0.1 mm 2 mps 675 mmHg 87%
    19:00 +4°C° 0.1 mm 3 mps 675 mmHg 87%
    20:00 +4°C° 0 mm 3 mps 675 mmHg 87%
    21:00 +5°C° 0 mm 2 mps 675 mmHg 87%
    22:00 +5°C° 0 mm 2 mps 675 mmHg 87%
    23:00 +4°C° 0 mm 2 mps 674 mmHg 87%

    Tomorrow, 12 December, Thursday

    Time Temperature Precipitation Wind Pressure Humidity
    00:00 +4°C° 0 mm 2 mps 674 mmHg 87%
    01:00 +4°C° 0 mm 2 mps 674 mmHg 87%
    02:00 +4°C° 0 mm 2 mps 674 mmHg 88%
    03:00 +4°C° 0 mm 2 mps 674 mmHg 88%
    04:00 +4°C° 0 mm 2 mps 673 mmHg 88%
    05:00 +4°C° 0 mm 2 mps 674 mmHg 89%
    06:00 +4°C° 0 mm 2 mps 674 mmHg 89%
    07:00 +4°C° 0 mm 2 mps 674 mmHg 89%
    08:00 +5°C° 0 mm 2 mps 675 mmHg 82%
    09:00 +8°C° 0 mm 1 mps 675 mmHg 75%
    10:00 +10°C° 0 mm 1 mps 676 mmHg 68%
    11:00 +10°C° 0 mm 1 mps 676 mmHg 65%
    12:00 +11°C° 0 mm 1 mps 676 mmHg 62%
    13:00 +10°C° 0 mm 2 mps 676 mmHg 59%
    14:00 +9°C° 0 mm 2 mps 676 mmHg 66%
    15:00 +8°C° 0 mm 2 mps 676 mmHg 73%
    16:00 +7°C° 0 mm 2 mps 676 mmHg 80%
    17:00 +8°C° 0 mm 1 mps 676 mmHg 82%
    18:00 +7°C° 0 mm 1 mps 676 mmHg 84%
    19:00 +7°C° 0 mm 1 mps 676 mmHg 86%
    20:00 +6°C° 0 mm 1 mps 676 mmHg 85%
    21:00 +5°C° 0 mm 0 mps 676 mmHg 85%
    22:00 +5°C° 0 mm 0 mps 676 mmHg 84%
    23:00 +5°C° 0.1 mm 0 mps 676 mmHg 85%

    Day after tomorrow, 13 December, Friday

    Time Temperature Precipitation Wind Pressure Humidity
    00:00 +5°C° 0.1 mm 1 mps 675 mmHg 87%
    01:00 +5°C° 0.1 mm 1 mps 675 mmHg 88%
    02:00 +5°C° 0.2 mm 1 mps 675 mmHg 89%
    03:00 +5°C° 0.2 mm 1 mps 675 mmHg 90%
    04:00 +5°C° 0.2 mm 1 mps 675 mmHg 91%
    05:00 +6°C° 0.2 mm 1 mps 675 mmHg 91%
    06:00 +6°C° 0.2 mm 1 mps 675 mmHg 91%
    07:00 +6°C° 0.2 mm 1 mps 675 mmHg 92%
    08:00 +7°C° 0.4 mm 1 mps 676 mmHg 87%
    09:00 +7°C° 0.4 mm 2 mps 676 mmHg 82%
    10:00 +8°C° 0.4 mm 2 mps 676 mmHg 77%
    11:00 +8°C° 0.7 mm 2 mps 676 mmHg 80%
    12:00 +8°C° 0.7 mm 2 mps 675 mmHg 83%
    13:00 +7°C° 0.7 mm 2 mps 675 mmHg 86%
    14:00 +7°C° 0.7 mm 2 mps 674 mmHg 87%
    15:00 +7°C° 0.7 mm 1 mps 674 mmHg 88%
    16:00 +7°C° 0.7 mm 1 mps 674 mmHg 90%
    17:00 +6°C° 0.2 mm 1 mps 674 mmHg 90%
    18:00 +6°C° 0.2 mm 1 mps 674 mmHg 91%
    19:00 +5°C° 0.2 mm 1 mps 674 mmHg 92%
    20:00 +6°C° 0.2 mm 1 mps 674 mmHg 92%
    21:00 +5°C° 0.2 mm 2 mps 673 mmHg 92%
    22:00 +5°C° 0.2 mm 2 mps 673 mmHg 92%
    23:00 +5°C° 0.3 mm 2 mps 673 mmHg 92%

    14 December, Saturday

    Time Temperature Precipitation Wind Pressure Humidity
    00:00 +4°C° 0.3 mm 3 mps 672 mmHg 92%
    01:00 +5°C° 0.3 mm 3 mps 672 mmHg 93%
    02:00 +5°C° 0.7 mm 4 mps 671 mmHg 93%
    03:00 +5°C° 0.7 mm 4 mps 670 mmHg 93%
    04:00 +6°C° 0.7 mm 5 mps 669 mmHg 94%
    05:00 +6°C° 6.8 mm 5 mps 669 mmHg 94%
    06:00 +6°C° 6.8 mm 5 mps 668 mmHg 94%
    07:00 +6°C° 6.8 mm 5 mps 668 mmHg 95%
    08:00 +6°C° 4.4 mm 4 mps 668 mmHg 94%
    09:00 +5°C° 4.4 mm 3 mps 668 mmHg 93%
    10:00 +6°C° 4.4 mm 2 mps 668 mmHg 93%
    11:00 +6°C° 1.3 mm 2 mps 668 mmHg 92%
    12:00 +7°C° 1.3 mm 1 mps 668 mmHg 92%
    13:00 +7°C° 1.3 mm 1 mps 668 mmHg 91%
    14:00 +7°C° 0.9 mm 1 mps 669 mmHg 91%
    15:00 +7°C° 0.9 mm 1 mps 670 mmHg 90%
    16:00 +6°C° 0.9 mm 1 mps 670 mmHg 89%
    17:00 +5°C° 0.2 mm 2 mps 672 mmHg 89%
    18:00 +5°C° 0.2 mm 2 mps 673 mmHg 89%
    19:00 +4°C° 0.2 mm 2 mps 674 mmHg 89%
    20:00 +4°C° 0 mm 2 mps 675 mmHg 88%
    21:00 +4°C° 0 mm 2 mps 675 mmHg 88%
    22:00 +4°C° 0 mm 2 mps 676 mmHg 88%
    23:00 +4°C° 0 mm 2 mps 677 mmHg 88%

    15 December, Sunday

    Time Temperature Precipitation Wind Pressure Humidity
    00:00 +4°C° 0 mm 2 mps 678 mmHg 89%
    01:00 +4°C° 0 mm 2 mps 679 mmHg 89%
    02:00 +4°C° 0 mm 2 mps 679 mmHg 89%
    03:00 +4°C° 0 mm 2 mps 680 mmHg 89%
    04:00 +4°C° 0 mm 2 mps 680 mmHg 90%
    05:00 +4°C° 0 mm 2 mps 681 mmHg 89%
    06:00 +4°C° 0 mm 2 mps 682 mmHg 88%
    07:00 +4°C° 0 mm 2 mps 682 mmHg 87%
    08:00 +6°C° 0 mm 2 mps 684 mmHg 82%
    09:00 +9°C° 0 mm 1 mps 685 mmHg 78%
    10:00 +11°C° 0 mm 1 mps 686 mmHg 73%
    11:00 +12°C° 0 mm 1 mps 686 mmHg 70%
    12:00 +13°C° 0 mm 1 mps 686 mmHg 68%
    13:00 +14°C° 0 mm 1 mps 686 mmHg 66%
    14:00 +11°C° 0 mm 0 mps 686 mmHg 72%
    15:00 +10°C° 0 mm 0 mps 686 mmHg 78%
    16:00 +9°C° 0 mm 0 mps 686 mmHg 85%
    17:00 +8°C° 0 mm 0 mps 687 mmHg 86%
    18:00 +8°C° 0 mm 0 mps 687 mmHg 87%
    19:00 +7°C° 0 mm 0 mps 687 mmHg 89%
    20:00 +7°C° 0 mm 0 mps 687 mmHg 88%
    21:00 +8°C° 0 mm 1 mps 688 mmHg 88%
    22:00 +8°C° 0 mm 1 mps 688 mmHg 88%
    23:00 +7°C° 0 mm 1 mps 688 mmHg 86%

    16 December, Monday

    Time Temperature Precipitation Wind Pressure Humidity
    00:00 +7°C° 0 mm 1 mps 688 mmHg 85%
    01:00 +7°C° 0 mm 1 mps 688 mmHg 84%
    02:00 +7°C° 0 mm 1 mps 688 mmHg 82%
    03:00 +7°C° 0 mm 1 mps 688 mmHg 80%
    04:00 +7°C° 0 mm 1 mps 688 mmHg 79%
    05:00 +7°C° 0 mm 1 mps 688 mmHg 78%
    06:00 +7°C° 0 mm 1 mps 688 mmHg 78%
    07:00 +7°C° 0 mm 1 mps 688 mmHg 78%
    08:00 +8°C° 0 mm 1 mps 689 mmHg 74%
    09:00 +10°C° 0 mm 1 mps 689 mmHg 70%
    10:00 +12°C° 0 mm 1 mps 690 mmHg 66%
    11:00 +13°C° 0 mm 1 mps 690 mmHg 65%
    12:00 +13°C° 0 mm 1 mps 690 mmHg 64%
    13:00 +13°C° 0 mm 1 mps 689 mmHg 63%
    14:00 +12°C° 0 mm 1 mps 689 mmHg 71%
    15:00 +11°C° 0 mm 1 mps 689 mmHg 78%
    16:00 +10°C° 0 mm 1 mps 688 mmHg 85%
    17:00 +9°C° 0 mm 1 mps 688 mmHg 87%
    18:00 +8°C° 0 mm 1 mps 688 mmHg 88%
    19:00 +8°C° 0 mm 1 mps 688 mmHg 90%
    20:00 +7°C° 0 mm 1 mps 688 mmHg 90%
    21:00 +7°C° 0 mm 1 mps 688 mmHg 90%
    22:00 +7°C° 0 mm 1 mps 688 mmHg 90%
    23:00 +7°C° 0 mm 1 mps 688 mmHg 90%
    Show more